Location: Angwan Shehu
(11.2514°N, 7.4613°E)
Time: 22:00:32
(UTC+00:00)

SR - Pass Details

Date: 21 April 2021
Orbit: 573 x 882 km, 66.7° (Epoch: 10 May)

Event Time Altitude Azimuth Distance (km) Brightness Sun altitude
Rises 05:33:49 0° 205° (SSW) 3,092 ? 3.5°
Reaches altitude 10° 05:36:05 10° 208° (SSW) 2,220 ? 4.0°
Maximum altitude 05:41:10 69° 291° (WNW) 827 ? 5.3°
Drops below altitude 10° 05:46:42 10° 14° (NNE) 2,417 ? 6.6°
Sets 05:49:16 0° 17° (NNE) 3,388 ? 7.2°
